Regional Weather Roundup
Issued by NWS

Home | Current Version | Previous Version | Graphics & Text | Print | Product List | Glossary On
Versions: 1 2 3 4 5 6 7 8 9 10 11 12 13 14 15 16 17 18 19 20 21 22 23 24 25 26 27 28 29 30 31 32 33 34 35 36 37 38 39 40 41 42 43 44 45 46 47 48 49 50
000
ASUS44 KMEG 251410
RWRTN
TENNESSEE HOURLY STATE WEATHER ROUNDUP
NATIONAL WEATHER SERVICE MEMPHIS TN
900 AM CDT TUE JUL 25 2017

TNZ002-004-019-021-049-052-054-088>092-251500-
WEST TENNESSEE

CITY           SKY/WX    TMP DP  RH WIND       PRES   REMARKS
MEMPHIS INTL   SUNNY     84  77  79 CALM      30.09R HX  94
NWS MEMPHIS      N/A     83 N/A N/A MISG        N/A
JACKSON        SUNNY     83  77  82 CALM      30.10S HX  92
SOMERVILLE       N/A     82  77  83 CALM      30.09R HX  91
COVINGTON      SUNNY     81  77  89 CALM      30.09S
UNION CITY     SUNNY     82  77  83 CALM      30.08S HX  91
BOLIVAR        SUNNY     82  75  78 CALM      30.10R
PARIS          SUNNY     81  75  83 CALM      30.09S
HUNTINGDON     SUNNY     81  75  83 CALM      30.09S
LEXINGTON      SUNNY     79  73  83 CALM      30.11
SELMER         SUNNY     81  73  78 CALM      30.11R
SAVANNAH       SUNNY     81  75  83 CALM      30.10R
$$

TNZ008-025-027-028-033-062-065-066-251500-
NORTH MIDDLE TENNESSEE

CITY           SKY/WX    TMP DP  RH WIND       PRES   REMARKS
NASHVILLE      MOSUNNY   85  75  72 CALM      30.11S HX  93
PORTLAND       SUNNY     81  75  83 CALM      30.10F
CLARKSVILLE    SUNNY     83  74  74 CALM      30.10S
SMYRNA         SUNNY     82  75  79 CALM      30.11F
COOKEVILLE     SUNNY     79  72  78 SE3       30.13S
GALLATIN       SUNNY     81  75  83 CALM      30.13S
CROSSVILLE     SUNNY     79  69  71 E3        30.18F
$$

TNZ061-075-076-078-094-096-097-251500-
SOUTH MIDDLE TENNESSEE

CITY           SKY/WX    TMP DP  RH WIND       PRES   REMARKS
FAYETTEVILLE   SUNNY     79  72  78 CALM      30.13R
TULLAHOMA      SUNNY     79  70  73 CALM      30.14S
WINCHESTER     SUNNY     79  72  78 CALM      30.13S
MCMINNVILLE    SUNNY     81  77  89 CALM      30.13S
COLUMBIA       SUNNY     81  72  74 N3        30.09S
SHELBYVILLE    SUNNY     79  73  83 CALM      30.12S
$$

TNZ017-018-042-046-047-251500-
NORTHEAST TENNESSEE

CITY           SKY/WX    TMP DP  RH WIND       PRES   REMARKS
TRI CITIES     MOSUNNY   78  69  73 VRB3      30.17R
ELIZABETHTON   SUNNY     79  68  69 CALM      30.17S
$$

TNZ012-013-036-069-073-074-251500-
CENTRAL EAST TENNESSEE

CITY           SKY/WX    TMP DP  RH WIND       PRES   REMARKS
KNOXVILLE      MOSUNNY   80  71  74 CALM      30.12S
OAK RIDGE      SUNNY     81  70  69 CALM      30.14S
DOWNTOWN KNOXV SUNNY     81  73  78 CALM      30.12S
GATLINBURG     SUNNY     81  68  65 CALM      30.12S
MORRISTOWN     SUNNY     81  72  74 CALM      30.14S
JACKSBORO      SUNNY     79  72  78 CALM      30.17F
$$

TNZ083-085-099-251500-
SOUTHEAST TENNESSEE

CITY           SKY/WX    TMP DP  RH WIND       PRES   REMARKS
CHATTANOOGA    PTSUNNY   82  73  74 NE3       30.12S
DAYTON         SUNNY     81  75  83 VRB3      30.11S
$$

SKY/WX REPORTED AS FAIR MEANS FEW OR NO CLOUDS BELOW
12 THOUSAND FEET.




USA.gov is the U.S. government's official web portal to all federal, state and local government web resources and services.